Terminal Aerodrome Forecast
Issued by NWS

Home | Current Version | Previous Version | Text Only | Print | Product List | Glossary Off
Versions: 1 2 3 4 5 6 7 8 9 10 11 12 13 14 15 16 17 18 19 20 21

000
FTUS43 KTOP 262300 AAA
TAFFOE
TAF AMD
KFOE 262359Z 2700/2724 03009KT P6SM VCTS BKN080CB
      TEMPO 2700/2701 VRB35KT 2SM TSRA BKN020CB
     FM270200 13005KT P6SM SCT080=

USA.gov is the U.S. government's official web portal to all federal, state and local government web resources and services.